Location: Aiyekoto
(8.4333°N, 4.3667°E)
Time: 23:23:50
(UTC+00:00)

ATLAS 5 CENTAUR R/B - Pass Details

Date: 09 October 2020
Orbit: 527 x 1131 km, 63.4° (Epoch: 28 October)

Event Time Altitude Azimuth Distance (km) Brightness Sun altitude
Rises 04:32:58 0° 357° (N) 3,648 5.4 -14.9°
Reaches altitude 10° 04:35:52 10° 9° (N) 2,787 5.0 -14.2°
Maximum altitude 04:41:26 28° 66° (ENE) 1,918 4.8 -12.8°
Drops below altitude 10° 04:47:22 10° 121° (ESE) 2,994 6.1 -11.4°
Sets 04:50:34 0° 132° (SE) 3,967 6.6 -10.6°
